GEFSMW_500_meanwind_006.txt.gz
Wind_Speed
26 25 25 24 23 20 20 21 21 21 20 18 18 18 19 19 18 16 15 15 14 17 21 23 23 23 23 23 21 18 17 19 21 22 21 18 16 16 15 15 16 16 15
31 32 30 28 26 22 20 21 23 24 24 23 22 23 21 19 17 15 16 16 17 20 23 26 26 25 26 26 25 22 20 20 23 24 23 20 17 16 15 14 15 16 16
37 37 35 31 27 25 23 23 25 25 25 24 23 20 16 14 14 15 17 19 21 23 25 26 26 26 27 27 26 24 23 23 24 25 24 22 19 17 16 14 14 17 18
39 39 37 33 31 30 28 27 27 25 25 25 22 18 14 13 14 17 20 22 23 25 25 26 25 24 25 26 25 24 23 24 26 27 27 25 20 17 17 15 14 16 17
36 38 37 34 33 31 30 30 27 24 23 22 21 18 17 16 18 19 22 24 24 25 25 25 25 24 24 26 26 25 23 25 28 29 27 25 22 19 19 17 15 15 14
31 36 38 37 37 34 33 33 26 22 20 19 17 17 17 19 20 21 22 25 25 24 24 25 26 25 25 25 25 23 23 26 30 31 27 25 22 21 20 18 17 15 13
23 28 35 39 39 39 38 33 26 21 16 14 15 16 17 20 21 22 23 24 25 24 25 26 25 25 24 23 22 21 23 26 29 31 28 25 22 22 21 20 18 17 17
20 22 27 34 37 39 37 31 21 14 10 11 15 16 19 20 21 23 24 25 25 25 25 25 24 24 23 21 19 19 21 24 27 28 26 22 21 22 23 22 22 21 20
21 20 23 28 31 32 28 22 12 7 8 12 16 18 19 21 23 24 24 25 25 24 24 24 24 23 22 20 16 15 17 19 21 23 21 19 19 20 20 22 25 25 24
20 21 25 27 25 24 19 13 7 7 11 15 18 19 20 22 24 25 25 25 24 24 23 23 23 22 20 18 15 13 14 17 19 21 22 22 22 21 20 21 24 26 27
20 20 20 19 16 15 13 8 7 9 13 16 18 20 22 23 24 25 26 26 26 25 23 22 21 20 19 16 15 14 15 17 18 21 22 23 22 19 18 19 22 26 28
14 13 12 7 5 4 4 5 6 10 14 18 22 25 26 25 25 24 25 25 26 25 23 21 20 19 19 17 14 13 14 15 16 17 19 21 21 20 18 17 19 24 29
12 12 11 7 2 3 4 6 10 14 17 20 23 25 26 24 21 20 20 20 22 22 21 20 20 19 20 20 18 16 16 15 16 16 16 18 20 21 22 22 20 22 28
14 10 5 3 4 5 6 10 14 17 18 19 21 21 22 19 17 18 20 19 19 19 20 20 20 20 21 21 22 21 20 19 18 18 19 20 20 21 23 24 25 24 28
13 9 5 6 8 9 9 11 15 18 19 20 20 22 20 17 16 18 20 20 20 20 20 20 20 21 22 23 24 25 25 23 22 21 21 21 22 23 23 24 25 25 28
16 14 12 12 14 15 14 15 17 19 20 21 20 20 19 17 17 18 19 19 19 20 19 18 19 20 22 23 25 26 26 26 24 23 23 22 22 23 23 23 24 24 27
19 21 19 16 16 17 18 19 19 19 19 18 18 18 19 19 19 20 20 21 21 20 20 20 19 19 22 23 24 25 26 26 25 24 24 24 24 24 24 24 24 22 22
10 12 13 13 14 16 17 18 17 16 16 17 18 19 20 20 20 20 20 21 22 23 23 22 21 22 21 22 22 22 23 24 25 25 25 25 26 26 26 25 24 22 22
5 4 5 7 8 9 11 12 14 15 16 18 19 20 21 21 20 19 19 21 23 22 22 22 22 22 21 21 22 23 23 24 25 25 26 26 26 27 28 27 25 23 22
7 4 2 2 4 6 9 12 14 15 16 17 19 21 21 20 19 19 21 22 22 21 20 21 22 22 21 22 23 23 24 25 25 25 25 26 27 27 27 27 26 25 23
6 3 2 3 6 9 12 14 15 16 17 18 19 20 19 19 20 20 20 20 20 19 19 20 21 22 23 25 26 27 28 28 28 27 26 26 26 27 27 26 26 26 25
6 6 7 9 11 13 14 15 16 15 16 17 17 17 17 18 19 18 17 17 17 17 18 20 21 24 26 29 31 33 34 34 34 33 30 27 26 27 26 24 25 25 25
11 11 12 12 13 13 14 15 16 16 17 17 16 16 17 18 18 17 16 16 17 18 19 21 23 25 27 29 31 32 33 34 35 35 34 31 27 26 26 24 24 25 25
13 13 13 13 14 14 15 16 17 18 18 17 17 17 18 18 18 17 16 17 18 18 19 20 22 24 25 27 29 30 30 30 30 31 32 31 28 24 24 24 23 24 24
13 12 13 14 14 15 15 16 17 17 16 15 16 16 17 17 16 15 15 15 16 17 18 19 20 22 23 23 23 22 21 21 22 24 26 26 25 23 23 23 22 21 21
12 13 14 14 14 15 17 18 17 15 14 14 14 14 15 15 15 14 13 14 15 15 15 16 17 18 18 18 16 11 6 7 12 15 18 18 18 19 20 20 20 19 17

GEFSMW_500_meanwind_012.txt.gz
Wind_Speed
32 30 28 26 26 26 27 27 26 26 26 25 25 23 21 20 21 21 21 20 21 21 21 22 23 24 25 25 26 25 26 26 26 24 24 23 24 24 23 22 23 24 24
36 33 31 29 27 27 28 30 29 29 29 29 27 26 25 24 23 22 22 22 21 21 21 22 24 26 27 28 28 27 27 27 27 27 27 26 25 24 23 23 23 24 24
39 36 33 31 30 29 30 32 33 34 34 33 32 31 29 27 25 23 22 22 22 21 22 24 25 27 28 28 28 27 27 27 28 28 28 28 28 25 25 25 24 24 24
39 38 35 34 34 34 35 36 36 37 39 39 36 33 29 27 25 24 23 23 24 24 25 25 26 27 27 26 26 26 26 27 27 27 27 28 28 28 26 26 26 25 24
38 37 36 35 36 38 38 39 38 40 41 39 36 33 31 28 26 24 24 25 26 25 25 25 26 25 25 24 24 25 26 27 27 28 28 28 28 27 27 26 26 25 24
36 35 35 36 38 40 41 41 40 44 44 40 37 34 31 28 25 23 23 24 24 24 25 25 25 24 23 24 25 26 27 27 27 27 28 29 30 28 27 26 25 25 25
33 35 36 37 39 40 42 43 43 46 44 40 35 33 30 26 22 21 22 23 24 24 25 25 24 23 23 24 25 26 26 25 25 26 27 28 29 28 27 25 25 25 25
30 34 37 38 39 39 41 41 44 44 41 40 37 32 27 23 20 19 20 22 23 24 25 25 24 24 24 25 26 26 25 24 23 24 25 27 27 27 26 25 25 25 25
28 32 35 37 37 38 38 39 42 39 37 35 30 27 22 18 17 19 20 22 23 25 26 26 26 25 25 26 26 25 24 23 22 21 21 23 25 25 24 23 25 25 25
24 28 31 34 35 34 34 34 35 32 29 27 22 18 14 14 17 19 20 22 24 26 28 29 28 27 27 26 24 24 23 22 21 19 18 19 20 20 19 20 19 22 24
17 20 24 27 27 28 26 25 25 22 20 17 14 12 13 15 17 19 22 23 25 26 27 27 27 26 25 24 23 22 22 21 20 19 18 18 18 18 18 18 17 19 22
10 10 10 9 8 7 9 11 12 12 11 10 10 12 13 15 17 19 21 21 21 22 22 23 23 23 23 23 23 22 21 20 20 19 19 18 18 19 20 20 19 20 21
4 3 4 4 5 7 8 7 5 5 5 7 10 12 13 14 16 17 17 18 18 18 20 21 21 21 21 21 21 21 20 20 20 20 20 19 18 18 19 20 21 21 22
3 2 5 6 6 5 4 2 2 4 7 9 11 13 13 13 14 14 15 16 17 18 18 19 20 20 21 21 21 21 20 20 21 22 22 21 20 19 18 19 21 22 23
5 4 4 5 4 3 2 3 6 8 11 12 14 14 13 13 12 14 16 17 18 19 19 19 19 20 21 22 22 22 22 22 22 24 25 24 23 21 21 20 21 22 24
6 5 3 2 2 2 5 7 10 11 13 14 14 13 13 13 14 17 19 19 20 20 20 20 20 20 20 21 21 22 22 23 23 24 25 26 25 24 23 23 23 24 24
4 3 3 4 5 6 7 10 11 12 13 13 13 14 15 16 18 19 20 21 21 21 21 21 21 21 21 21 22 21 22 22 23 24 25 26 26 26 25 25 25 25 25
5 3 2 3 3 5 6 7 9 10 11 13 14 16 17 18 19 20 21 21 21 21 22 22 22 22 21 21 22 22 22 23 23 23 24 25 26 26 26 26 26 26 26
10 8 8 7 6 6 7 8 9 11 12 14 16 17 18 19 20 20 20 20 20 20 21 21 21 21 20 20 20 21 22 22 22 22 23 24 25 25 25 25 26 26 26
11 10 9 8 8 8 9 10 11 13 14 15 16 17 18 19 19 19 19 19 19 19 19 19 19 19 19 19 19 20 21 21 21 22 23 23 24 24 24 24 24 25 25
10 9 9 8 8 9 10 11 12 13 14 16 17 18 19 19 20 20 20 20 20 19 18 18 19 19 19 19 20 20 21 23 23 24 24 25 25 24 24 24 23 23 24
11 11 10 10 10 11 12 13 15 16 17 17 17 18 19 19 20 21 20 19 18 17 17 18 19 19 19 20 21 22 23 24 26 27 27 28 28 27 26 24 23 22 22
13 12 12 12 13 14 16 17 18 18 18 18 18 18 19 19 19 18 17 16 15 14 15 16 17 18 18 19 21 22 23 24 26 28 29 29 29 29 28 26 24 23 21
13 13 13 13 14 16 17 18 18 18 19 19 19 19 18 17 17 15 14 13 12 12 13 14 14 15 17 17 18 19 20 22 24 26 27 27 27 27 27 26 24 22 21
14 14 14 14 14 15 16 16 17 17 19 20 20 20 18 17 16 14 13 12 11 11 12 12 14 15 15 16 16 16 16 16 15 15 16 18 20 21 23 23 23 21 20
14 14 14 14 14 15 15 15 15 17 19 20 20 20 19 18 17 16 14 13 13 12 13 14 15 16 16 16 15 13 13 11 8 4 3 8 12 14 16 18 18 18 17

GEFSMW_500_meanwind_018.txt.gz
Wind_Speed
36 35 35 35 35 35 33 32 32 31 30 30 29 27 26 25 27 28 29 29 28 27 26 26 25 25 24 24 23 23 23 23 23 23 23 23 24 24 25 25 26 26 27
36 35 36 37 37 37 37 36 35 34 34 34 34 32 30 29 30 31 33 33 32 31 29 27 26 26 25 24 24 24 25 25 25 25 25 26 26 26 26 26 26 27 27
33 34 35 37 39 39 40 39 39 37 37 38 39 36 34 32 32 34 34 35 35 34 32 29 27 26 25 25 25 25 26 26 25 25 26 26 27 27 27 26 26 26 27
30 31 33 36 39 41 42 42 41 40 40 40 41 40 39 38 35 35 35 35 36 36 34 31 28 26 25 25 26 26 26 26 26 26 26 26 27 28 28 27 26 26 27
31 31 32 35 38 41 44 44 43 43 43 43 44 44 46 45 41 39 37 36 36 35 34 31 29 27 25 25 26 26 26 25 25 26 26 26 27 28 29 29 28 27 26
35 34 34 35 37 41 44 46 46 45 45 45 45 47 49 48 46 43 41 40 39 37 35 32 29 26 25 25 25 26 25 25 25 26 27 27 27 28 28 29 29 28 27
36 35 35 36 38 40 43 46 46 46 46 46 47 49 50 51 49 47 45 43 41 39 36 31 27 23 23 24 24 25 25 25 25 26 26 27 27 27 27 27 28 28 26
32 32 33 34 36 38 40 43 44 44 45 46 47 48 49 48 46 44 42 39 38 36 32 26 21 19 22 24 25 25 25 25 25 25 25 26 25 25 25 26 26 26 25
27 28 29 30 31 32 34 36 39 41 42 42 45 45 44 43 41 40 37 36 32 28 21 17 16 20 23 25 26 26 26 25 25 24 24 24 24 24 24 24 24 24 24
19 20 21 22 22 23 25 29 31 34 35 35 37 39 39 35 31 28 27 25 20 15 13 15 18 22 24 25 25 25 25 24 24 23 23 22 22 22 21 21 21 22 23
10 11 12 14 15 17 18 21 23 25 26 26 25 24 23 20 17 16 14 12 10 11 14 17 19 21 22 22 22 22 22 22 22 22 21 21 20 19 20 19 19 20 20
4 3 3 3 5 7 8 10 11 11 11 11 11 10 10 8 7 6 6 6 8 11 13 15 17 18 19 19 19 19 20 20 20 21 20 20 19 18 19 19 19 19 19
5 4 5 5 4 4 5 6 6 5 5 5 4 3 3 3 3 3 4 6 8 10 12 15 16 17 18 18 18 19 19 20 20 20 20 20 19 18 19 19 20 20 20
6 6 7 6 6 6 6 6 7 6 5 4 3 2 2 0 1 3 4 6 8 10 13 15 16 17 18 18 18 19 19 20 20 21 21 21 20 20 20 20 20 20 20
6 5 5 6 5 7 7 7 7 6 5 4 3 2 1 2 3 5 7 8 11 13 15 16 17 18 18 18 19 19 20 21 21 22 22 22 22 22 21 21 21 21 20
5 5 4 4 5 7 7 8 7 7 6 6 5 5 5 5 7 8 10 12 14 16 17 18 19 20 19 19 20 20 21 22 22 22 23 24 24 23 23 23 23 23 22
5 5 6 5 7 8 8 8 8 7 6 6 6 7 8 9 10 12 13 15 16 17 19 20 20 21 21 21 21 21 21 22 23 23 24 23 24 25 25 25 25 24 24
10 10 9 9 9 9 9 9 9 9 9 9 9 10 11 12 13 15 16 17 18 19 20 21 21 21 21 21 21 21 22 23 23 24 24 24 24 24 25 25 26 26 25
12 11 11 10 10 10 10 10 10 11 11 12 12 12 13 14 14 15 17 18 19 20 21 21 22 22 22 22 22 22 23 23 24 24 23 23 23 23 24 25 25 25 26
12 12 12 12 11 12 12 12 12 12 12 12 12 12 13 13 14 15 17 18 19 19 20 21 22 22 22 22 22 23 23 24 24 24 23 24 24 23 23 24 24 24 24
13 13 13 13 13 13 13 13 13 13 13 13 13 13 13 13 14 15 16 16 17 18 18 19 19 20 20 21 22 22 23 24 24 24 24 24 24 24 23 23 22 22 22
14 14 14 14 14 15 15 15 15 15 15 15 15 15 15 15 16 16 15 15 14 15 16 16 17 18 19 20 21 21 22 23 23 24 24 24 25 25 24 24 22 21 21
15 16 16 16 17 17 17 16 16 16 16 17 17 17 17 17 17 17 16 15 15 15 15 16 16 17 17 18 19 18 19 19 20 22 23 24 24 25 25 25 23 22 20
15 16 17 17 18 18 17 17 17 17 17 18 18 19 19 19 18 18 18 17 17 17 17 16 16 16 15 14 14 14 15 15 17 18 19 20 22 23 24 24 23 22 20
15 16 16 17 18 18 18 18 18 17 17 18 18 19 19 20 20 19 19 20 19 19 18 17 16 14 12 11 11 12 11 12 12 12 12 12 14 17 19 20 20 20 18
14 14 15 16 17 17 17 18 18 17 17 17 18 18 19 20 20 20 21 21 21 21 21 19 16 13 11 10 10 10 10 10 9 8 5 2 3 8 11 14 16 16 16

GEFSMW_500_meanwind_024.txt.gz
Wind_Speed
42 41 39 38 37 36 35 34 34 32 31 30 30 31 32 30 29 28 27 28 28 28 29 29 30 31 31 32 31 30 28 26 24 23 22 22 23 23 24 25 26 26 25
43 42 40 39 38 38 37 36 35 34 34 33 33 35 36 35 32 30 29 29 30 29 30 30 31 32 32 33 33 32 29 27 25 24 23 24 24 25 24 25 27 27 26
40 39 37 37 37 36 36 36 35 34 34 34 35 37 37 36 35 33 31 31 32 32 31 32 33 33 33 33 34 32 29 28 26 25 25 25 25 26 25 26 27 27 26
35 34 34 33 33 33 33 33 32 33 33 34 35 37 39 39 38 38 37 36 35 35 35 35 35 34 33 33 33 33 31 29 27 26 26 26 26 27 27 27 27 28 28
31 30 30 30 30 30 30 30 30 31 32 34 35 37 40 40 40 41 41 40 39 38 38 37 37 35 34 33 33 33 33 31 29 27 26 26 26 27 27 28 28 28 28
30 30 30 30 30 30 30 30 31 32 33 35 37 38 39 42 44 45 44 42 41 41 39 37 36 36 33 34 34 35 35 32 29 27 26 26 27 28 28 28 30 29 28
32 31 31 32 32 32 32 33 33 35 36 38 39 40 40 42 44 45 45 43 42 40 38 35 35 35 35 35 36 37 36 33 29 27 26 26 27 28 29 29 30 30 29
33 32 32 32 32 33 34 35 36 38 39 40 41 41 41 41 43 43 43 41 40 38 37 36 35 36 36 36 36 37 36 32 28 27 26 27 28 28 29 29 29 29 29
28 28 29 30 30 31 32 34 35 37 37 37 37 37 37 38 39 39 39 39 38 38 37 37 36 36 37 37 37 36 34 30 27 26 27 28 29 29 29 29 29 28 28
21 22 23 24 25 26 28 30 30 31 30 30 31 31 31 33 34 35 35 35 36 36 36 36 36 36 35 33 31 30 27 24 24 25 27 27 28 28 28 28 28 27 26
14 15 15 16 17 18 20 22 23 23 23 24 25 26 27 27 29 30 31 33 32 31 31 29 28 26 25 24 22 20 19 20 22 23 24 25 26 26 27 27 27 26 25
7 6 6 6 7 9 10 12 13 15 17 17 17 17 18 18 18 19 19 17 16 15 15 15 15 15 15 15 16 16 17 19 21 22 23 23 24 24 25 26 25 25 23
4 3 3 3 4 3 3 3 2 3 3 3 4 5 5 6 6 6 6 6 6 6 7 7 8 9 11 13 15 16 18 19 21 21 22 22 22 23 24 25 25 24 23
10 10 10 10 10 9 9 9 9 8 8 7 5 5 4 4 3 2 0 1 1 2 4 6 8 10 11 13 15 17 18 19 20 21 21 22 22 22 23 24 24 23 23
14 14 15 15 14 14 14 14 14 13 12 11 9 8 7 6 5 5 4 4 5 6 7 9 11 12 14 15 17 18 19 20 21 21 21 21 22 22 23 23 23 23 23
17 16 16 16 16 16 15 15 14 13 12 11 10 9 8 7 7 7 7 8 9 10 11 12 14 15 17 18 20 21 21 22 22 22 22 22 22 22 23 23 23 23 23
19 18 17 17 16 16 15 14 13 13 12 10 10 9 8 8 8 9 10 11 12 13 14 15 17 18 19 20 21 22 23 23 23 23 23 22 22 21 22 22 22 23 23
19 18 17 17 16 16 15 15 14 14 13 12 11 10 10 10 10 11 11 12 14 15 16 18 19 20 21 21 22 22 23 23 24 24 23 22 21 21 22 21 21 22 22
18 18 17 16 16 16 16 16 16 15 15 14 14 13 13 12 12 12 13 14 14 15 16 17 18 20 21 21 22 23 23 23 23 23 22 22 21 21 22 21 20 19 19
18 18 17 17 17 17 17 17 17 17 17 17 16 16 15 15 15 15 15 15 15 15 16 17 17 18 19 20 20 20 21 21 22 22 22 21 21 21 21 20 19 18 18
18 18 18 18 18 18 18 18 19 19 19 19 19 19 19 19 18 18 18 17 16 16 16 16 16 17 17 17 18 18 19 19 20 21 20 20 20 20 19 19 18 17 16
17 17 18 18 18 18 18 19 19 19 19 20 20 21 21 21 21 21 21 20 18 17 16 16 15 15 14 14 14 14 15 16 17 17 17 17 18 18 18 17 16 16 14
16 16 17 17 17 18 18 18 18 18 19 19 20 21 22 22 22 22 22 21 21 19 18 17 15 13 11 10 10 10 12 13 13 14 14 15 16 16 16 16 16 15 13
14 15 15 16 16 17 17 17 17 18 18 19 20 22 23 23 24 23 22 22 22 21 19 18 16 13 12 11 10 10 10 10 10 10 11 11 12 14 15 15 14 14 13
12 13 13 14 15 16 17 17 17 17 18 19 20 22 23 24 25 25 24 23 23 23 22 21 19 17 15 15 14 14 12 9 7 5 5 5 7 9 11 12 13 12 11
10 11 12 13 14 15 16 17 17 18 19 20 21 22 23 24 25 26 25 24 24 25 25 24 23 22 20 20 19 19 18 15 12 10 7 4 4 6 7 8 9 10 9

GEFSMW_500_meanwind_030.txt.gz
Wind_Speed
39 39 40 40 40 40 39 38 36 35 34 32 31 30 30 31 31 32 32 31 29 28 27 27 26 26 26 26 25 26 26 27 28 29 29 28 28 27 25 24 23 23 23
40 41 41 42 42 42 42 42 41 39 37 35 34 33 33 33 34 35 35 33 31 30 29 29 27 27 27 27 26 26 26 25 26 29 31 30 29 29 28 27 25 24 24
43 41 41 42 43 43 42 42 42 40 39 38 36 35 35 34 35 36 36 35 32 31 29 29 28 27 27 27 27 26 26 25 25 27 30 31 31 29 29 29 27 25 24
42 40 40 42 42 43 42 42 41 40 39 38 37 37 36 35 35 36 35 34 32 30 28 29 28 28 27 27 25 25 25 26 26 27 28 30 31 31 31 30 30 28 26
35 36 38 39 39 39 40 40 40 40 39 38 38 37 36 35 34 34 34 33 32 32 30 28 27 28 27 26 27 26 27 27 27 27 28 29 30 32 32 32 31 30 28
31 29 30 34 33 34 35 36 37 38 38 38 37 37 36 35 34 34 34 34 33 32 32 30 27 27 27 25 26 26 27 27 27 28 29 29 30 32 33 33 32 30 28
27 27 26 26 27 29 31 33 35 36 37 37 36 36 36 35 34 34 35 36 35 35 35 32 30 28 27 26 26 26 27 28 28 29 30 31 32 33 34 34 33 30 28
21 19 20 22 25 27 29 31 33 34 35 36 36 36 36 36 36 37 37 37 37 37 36 34 32 31 30 28 27 27 27 27 28 30 31 32 33 35 35 35 33 30 28
13 14 16 18 22 25 27 29 31 33 35 35 36 37 37 38 39 39 38 38 38 37 35 34 33 33 31 29 29 28 28 28 29 31 32 34 35 35 36 35 33 30 28
9 11 12 13 15 18 21 24 26 28 31 33 35 36 37 37 37 36 36 35 33 32 32 32 32 31 31 30 30 30 30 29 30 32 33 34 33 33 34 33 31 28 27
6 4 6 7 8 10 13 16 17 19 22 24 27 29 29 29 29 29 29 28 27 27 27 28 28 28 28 28 29 29 29 31 32 32 33 32 31 31 30 28 26 25 24
9 6 3 2 2 2 3 5 7 8 10 12 14 16 17 18 18 17 17 16 16 17 18 19 21 22 22 23 24 25 25 26 27 27 27 26 25 24 24 23 22 22 22
13 12 10 8 7 6 5 4 4 3 2 2 3 4 5 5 6 6 6 7 8 8 9 10 11 13 13 15 16 17 18 18 18 18 18 18 19 19 19 19 20 20 20
16 14 14 13 11 11 10 10 9 9 8 8 7 7 5 4 3 2 2 2 3 4 5 5 6 8 9 10 11 13 14 14 14 15 15 16 17 17 18 18 19 19 18
19 18 17 17 16 15 14 14 13 13 12 11 10 9 8 7 6 5 4 4 5 5 6 7 7 8 10 11 11 13 14 15 16 16 17 17 17 18 18 18 18 18 18
19 19 18 18 17 17 16 16 15 15 14 13 12 11 10 9 8 8 8 8 9 10 11 12 13 14 14 15 15 16 17 18 18 18 18 18 18 18 18 19 18 18 18
19 19 19 19 19 18 18 18 17 17 16 15 15 14 13 12 11 10 10 10 11 12 13 14 15 17 18 19 19 20 20 21 21 21 21 20 20 20 20 19 19 18 18
20 20 20 20 20 20 20 20 19 19 19 18 17 16 15 14 13 12 12 12 13 14 15 15 17 18 20 21 22 23 23 23 22 22 22 22 21 21 20 20 19 18 18
21 21 21 21 21 21 20 20 20 20 19 19 18 18 17 16 16 15 14 14 14 14 15 15 17 18 19 21 22 23 23 23 23 23 22 22 22 21 20 19 19 18 17
22 22 21 21 21 21 20 20 20 20 20 20 19 19 19 18 17 17 16 15 15 14 14 15 15 16 17 18 19 19 20 21 21 20 21 21 21 20 19 19 18 17 16
21 21 21 20 20 20 19 20 20 20 20 20 20 20 20 20 19 18 18 17 16 15 15 14 14 14 14 14 14 15 16 17 18 18 18 18 18 18 18 18 18 17 15
19 19 19 19 19 19 19 19 20 20 21 21 22 22 22 21 21 20 20 20 18 18 17 16 15 14 14 13 12 12 12 13 13 15 15 16 16 17 17 17 16 16 15
17 18 18 19 19 19 19 19 19 20 21 21 22 23 23 24 23 22 22 22 22 20 20 19 18 17 16 14 12 10 8 8 10 11 13 14 15 15 15 15 15 14 13
15 16 17 18 18 19 18 18 19 20 20 21 21 22 23 24 24 24 24 24 24 24 23 22 22 21 20 17 15 11 8 6 4 5 7 9 11 12 13 13 13 13 12
13 14 15 16 17 18 18 18 18 19 20 20 20 20 22 23 23 23 24 25 25 26 25 25 25 25 25 23 20 17 13 10 6 3 3 5 8 9 10 11 11 12 11
11 12 13 15 16 16 17 17 17 18 20 20 20 19 20 21 22 23 23 24 25 26 26 26 27 27 28 27 26 24 21 18 15 12 10 9 9 9 10 11 11 11 11

GEFSMW_500_meanwind_036.txt.gz
Wind_Speed
44 45 46 47 46 46 46 46 46 44 43 40 39 37 35 34 33 31 30 30 30 30 30 32 31 32 31 31 30 29 28 26 25 24 24 24 24 25 25 25 24 22 22
43 45 46 47 48 48 47 47 48 48 47 45 42 41 39 38 36 35 34 33 32 31 30 31 31 31 32 32 32 31 30 29 28 27 26 25 25 25 26 26 26 25 24
42 43 45 46 46 47 47 47 47 47 48 46 45 44 42 40 39 38 37 37 36 34 33 32 31 31 31 32 33 32 31 31 30 29 28 27 26 25 25 26 27 27 26
40 41 42 43 43 44 44 43 44 44 45 44 44 44 43 42 42 41 40 40 39 36 35 34 32 32 31 30 30 32 31 32 32 31 30 29 28 27 25 26 27 27 27
36 36 37 37 37 38 39 40 40 41 42 42 43 43 43 42 42 42 42 42 41 39 37 35 33 29 27 27 28 31 32 31 31 31 30 30 29 28 28 27 27 27 27
30 29 28 28 28 29 30 32 34 35 37 38 39 40 41 41 41 42 42 41 40 38 37 35 33 30 28 27 26 26 28 30 30 30 30 31 30 30 30 29 28 28 29
21 20 19 19 20 20 21 24 26 29 30 32 34 35 36 37 38 38 38 38 37 36 34 33 32 30 28 27 27 28 27 28 28 29 30 31 31 31 32 32 32 31 31
15 14 12 11 12 12 14 17 20 22 24 25 27 29 31 32 33 34 34 34 34 34 33 33 32 32 32 31 30 30 28 29 29 29 30 31 32 32 33 34 34 33 33
12 9 8 7 7 8 10 10 13 16 18 20 22 24 26 27 28 29 30 31 32 32 33 33 34 35 35 35 33 32 31 31 31 31 32 33 32 32 33 34 34 34 33
12 10 8 8 8 7 6 6 6 9 12 14 15 17 19 21 23 25 27 29 30 31 32 34 34 35 36 36 35 34 34 34 34 34 34 35 34 34 34 34 34 34 34
14 13 12 11 10 9 9 8 7 6 6 7 8 10 12 15 17 19 22 23 25 27 29 31 31 33 33 34 34 34 34 33 33 34 34 35 34 33 33 33 33 34 34
17 17 15 15 13 13 12 12 11 10 9 7 5 4 5 7 9 11 13 15 17 19 21 22 24 26 27 28 29 30 31 31 31 31 32 33 32 31 31 31 31 31 31
20 19 19 18 16 15 14 14 13 13 13 12 11 9 6 5 4 4 5 7 9 11 12 14 16 17 19 20 22 24 25 26 26 27 28 28 28 27 27 27 27 27 27
21 21 21 21 21 20 19 17 17 16 15 14 13 12 11 9 7 6 5 5 5 6 7 8 10 11 12 14 16 18 18 19 21 22 22 22 22 22 21 21 20 20 19
22 22 22 23 22 22 21 20 20 19 18 16 16 15 13 12 11 10 8 7 7 7 7 8 8 9 9 10 11 12 14 15 16 16 16 16 16 15 16 15 15 15 14
23 23 22 22 22 22 22 21 21 20 19 18 17 16 15 14 13 12 11 9 8 8 8 8 9 9 11 12 12 12 12 12 13 13 14 14 13 13 14 13 13 12 12
22 22 21 21 21 21 21 21 21 21 21 20 19 18 17 16 15 13 12 11 11 10 10 10 10 10 11 13 13 14 15 14 14 14 14 14 14 14 14 13 13 13 13
21 21 21 21 21 21 21 21 21 22 21 21 21 21 20 19 18 17 15 14 13 12 12 13 12 12 12 13 13 14 14 15 16 16 16 16 15 15 15 14 13 13 14
20 20 20 20 20 21 21 21 22 22 22 22 22 22 22 21 21 20 18 17 17 16 15 14 13 12 12 12 13 13 14 15 15 16 16 16 16 16 16 16 15 14 14
18 19 19 19 19 20 20 20 21 22 22 22 23 23 23 23 23 23 21 20 20 19 18 17 15 14 13 12 11 11 12 13 13 14 15 15 16 16 16 16 15 14 13
18 18 18 18 18 19 20 20 20 21 21 22 23 24 24 24 24 24 23 23 22 22 21 20 18 16 14 12 11 9 8 9 11 12 13 13 14 15 15 15 14 13 13
17 18 18 18 18 18 19 20 20 20 20 21 22 23 23 24 24 24 25 25 24 24 24 23 22 20 17 15 12 9 6 5 7 9 11 12 13 13 13 13 13 13 13
15 16 17 17 17 18 19 20 20 20 20 20 21 22 23 23 23 24 24 25 25 25 25 25 24 23 21 18 15 11 7 3 3 6 8 11 12 13 13 13 12 12 12
13 14 15 16 16 17 18 19 20 20 20 20 21 21 22 23 23 23 24 24 25 26 26 26 26 25 24 22 18 15 11 7 3 4 7 9 11 12 13 12 12 12 11
12 13 13 14 15 16 16 17 18 19 20 20 21 21 21 22 23 23 23 24 25 25 26 27 27 27 26 25 22 19 16 14 11 9 9 10 11 12 12 12 12 11 11
11 11 11 12 13 14 14 15 17 18 19 20 20 21 21 21 22 22 23 24 24 24 25 26 27 27 27 27 26 24 22 19 17 15 14 13 13 13 13 13 12 11 11

GEFSMW_500_meanwind_042.txt.gz
Wind_Speed
37 39 40 42 43 44 46 48 49 50 50 50 52 50 48 47 45 42 40 38 37 35 33 32 32 31 29 27 26 26 26 27 26 25 24 24 23 23 23 24 24 24 23
37 38 39 41 42 44 45 47 48 50 51 50 50 51 51 49 47 45 42 40 39 36 35 33 31 30 29 28 27 27 26 26 27 28 27 26 25 25 25 25 26 25 25
34 35 36 38 39 40 42 44 46 47 48 49 50 49 50 49 48 47 45 43 41 38 36 36 33 30 27 26 26 25 25 26 27 29 29 29 28 27 27 27 27 27 26
29 30 30 31 33 34 36 37 39 40 42 43 45 46 46 47 46 46 46 45 44 40 38 36 35 32 29 29 28 27 27 26 26 27 28 30 30 29 27 27 28 28 28
25 25 25 26 27 28 28 29 30 32 33 35 37 40 41 43 43 43 43 44 44 43 40 38 36 34 32 31 29 27 26 26 26 27 29 30 30 30 30 29 29 29 29
22 21 21 21 20 19 20 21 21 22 24 26 30 33 36 38 40 40 41 42 42 41 40 38 36 35 34 33 31 29 28 26 26 27 28 30 31 29 30 31 31 31 31
17 17 17 17 15 13 13 15 16 16 17 19 22 25 29 32 34 36 37 37 37 37 38 38 37 35 34 33 33 31 29 27 27 26 26 28 30 32 32 32 32 32 32
14 15 15 14 13 11 10 10 10 9 10 12 14 17 21 24 27 29 31 32 33 35 35 36 35 34 34 33 32 32 30 29 28 28 27 28 29 32 33 34 34 34 34
14 15 15 14 14 12 11 10 8 6 6 6 8 10 13 15 18 21 24 27 30 31 32 33 33 33 33 33 32 32 32 31 31 30 30 30 30 31 32 33 34 35 35
16 16 16 15 15 15 14 12 10 9 7 5 4 4 7 10 13 16 19 22 25 27 29 30 31 32 33 33 34 34 34 34 34 34 33 33 33 33 33 33 33 34 36
18 18 17 16 16 17 16 15 14 12 11 9 6 4 2 4 7 11 14 17 20 23 24 26 29 31 32 33 34 35 36 36 36 37 36 36 35 35 34 34 35 34 34
19 20 20 20 20 19 19 17 16 15 13 11 10 7 5 2 2 5 8 11 14 17 19 22 25 27 29 31 33 34 35 36 36 37 37 37 38 38 37 36 35 35 34
20 21 21 21 21 20 20 19 18 17 16 14 12 11 9 6 4 2 2 5 9 12 14 17 20 22 24 27 29 30 32 33 34 34 35 35 35 36 36 35 35 34 34
19 20 21 21 21 21 21 21 20 19 18 16 15 14 12 10 8 5 3 2 4 6 9 11 14 16 19 21 23 24 27 29 29 30 31 32 32 32 31 32 32 31 31
20 20 21 21 21 22 22 21 21 20 20 19 18 16 15 13 11 9 7 5 3 3 5 7 9 12 15 17 19 21 22 23 25 26 27 27 28 28 28 27 26 26 26
19 19 20 21 21 22 22 21 21 20 20 20 19 18 17 15 13 12 11 8 7 6 5 6 8 11 13 15 16 18 20 20 21 22 23 24 23 24 25 25 24 22 21
18 18 19 20 20 21 21 21 21 21 21 21 20 20 19 18 16 15 13 12 10 9 9 8 9 10 11 13 15 16 16 17 18 19 19 20 20 21 23 23 22 21 19
18 18 18 19 20 20 21 21 21 21 21 21 21 21 20 19 18 17 16 15 13 12 11 11 11 11 10 11 12 15 15 16 16 18 17 18 19 19 20 19 18 18 18
17 18 18 19 19 20 20 20 20 21 21 21 21 21 20 19 19 18 18 17 16 15 14 14 14 12 11 9 10 12 13 15 16 16 17 17 18 18 18 18 18 17 17
16 17 17 18 19 19 19 19 20 20 21 21 21 21 20 20 19 19 19 19 19 17 17 16 16 14 12 11 10 10 11 13 14 14 15 16 17 18 18 18 18 17 16
15 16 16 17 18 18 19 19 19 20 20 20 20 20 20 20 20 20 20 20 20 19 19 18 18 16 14 12 10 9 8 9 11 12 14 15 16 17 17 17 17 16 15
14 14 15 16 16 17 18 18 18 19 20 20 20 20 21 21 21 21 21 21 21 21 21 20 20 19 17 14 10 6 4 6 8 11 12 14 16 17 17 17 16 15 15
12 13 13 14 15 16 16 17 18 19 19 20 21 21 21 21 21 21 21 21 22 22 22 22 21 20 19 16 12 8 4 2 6 9 11 14 14 16 16 16 15 15 14
11 11 12 12 13 14 15 16 17 18 19 19 20 21 21 21 21 21 21 21 22 22 22 23 22 21 20 19 16 13 8 5 5 7 10 13 14 14 14 15 15 15 14
11 11 11 11 12 13 13 14 15 17 18 19 20 21 21 21 21 21 21 22 22 23 23 23 23 23 22 21 19 17 14 11 9 10 11 13 14 14 14 14 14 13 13
10 11 11 11 11 11 12 12 13 15 16 18 19 20 21 21 21 21 22 22 22 22 23 23 23 23 23 22 21 20 18 16 15 14 15 15 15 14 14 14 13 13 13

GEFSMW_500_meanwind_048.txt.gz
Wind_Speed
36 36 36 37 38 38 39 40 41 42 43 45 46 47 47 48 48 48 47 46 45 44 43 40 38 38 36 35 34 33 32 32 30 29 27 26 26 25 25 24 24 23 22
33 34 34 35 35 36 37 38 39 40 41 43 44 45 46 47 48 48 47 46 46 44 43 42 40 38 36 35 33 32 31 30 30 29 28 26 26 27 26 27 26 26 25
30 30 30 31 31 31 32 33 34 35 37 38 40 42 43 45 46 47 47 46 46 44 43 41 40 38 37 35 33 32 31 31 29 29 28 26 25 27 27 27 27 27 26
25 25 25 24 25 26 28 29 30 31 32 33 34 36 39 40 41 43 44 44 44 43 41 42 41 39 37 36 33 32 31 30 29 28 28 27 26 26 26 27 27 28 27
20 19 19 20 21 21 23 23 24 24 25 26 28 29 32 34 36 38 39 39 40 40 39 39 39 38 37 36 34 33 31 30 29 29 28 27 27 26 26 25 26 27 27
17 17 17 17 18 19 19 19 19 19 20 21 22 24 25 27 29 32 34 35 36 36 36 37 37 36 35 36 35 34 32 31 31 29 29 28 27 27 27 26 26 27 28
16 16 17 16 17 17 17 17 16 16 17 18 18 18 20 21 22 25 27 28 30 31 33 34 35 35 33 33 34 35 33 32 32 32 29 29 29 29 29 28 29 29 29
17 17 17 17 17 17 16 16 15 15 15 14 14 14 14 14 15 18 21 23 25 27 29 31 32 34 33 33 32 33 33 31 30 30 30 30 29 29 30 30 30 31 31
18 18 18 18 19 19 18 17 16 15 15 14 13 11 10 10 11 13 16 19 20 23 25 27 29 31 32 32 32 33 33 33 31 29 30 30 30 29 29 29 29 30 30
19 19 20 20 21 21 20 19 18 16 16 15 14 12 10 9 9 9 10 13 16 19 21 23 25 28 29 30 31 31 32 33 31 31 30 30 31 31 30 29 29 29 29
19 20 20 21 22 22 22 21 19 17 16 15 14 14 12 10 8 7 6 7 10 13 15 18 21 24 25 27 28 28 29 30 31 32 32 31 32 32 32 31 31 30 30
19 20 21 22 22 22 23 22 22 20 18 16 15 14 14 12 9 7 6 5 5 7 10 13 15 18 21 23 25 26 28 29 31 32 33 33 32 32 33 33 33 32 31
20 21 21 22 22 22 22 23 23 23 21 20 18 17 16 15 12 10 8 7 5 5 6 8 11 13 16 19 21 24 26 28 30 32 32 32 32 32 33 33 34 33 32
19 20 21 21 22 22 23 23 23 23 23 22 20 19 18 17 15 13 11 10 8 6 5 6 8 11 14 17 19 21 23 26 28 30 31 32 32 32 32 33 33 32 31
20 20 21 21 21 22 23 23 23 23 23 22 21 20 19 18 17 16 14 12 10 9 7 6 7 9 11 14 16 19 21 23 25 27 29 30 31 31 31 30 30 30 30
20 20 20 21 21 21 22 23 23 23 23 23 22 21 21 20 19 18 16 14 13 11 10 9 9 9 11 13 15 17 19 21 22 23 25 26 27 28 29 29 28 28 28
20 20 20 20 21 21 22 23 23 23 23 23 22 22 21 21 20 19 18 16 15 13 12 11 11 11 11 12 13 15 16 18 19 20 22 23 25 26 26 26 25 26 25
20 20 20 20 20 21 22 22 23 23 23 22 22 22 22 22 21 21 20 18 17 17 16 15 14 13 12 12 12 13 14 15 17 18 20 21 22 22 23 23 23 22 21
19 19 19 19 20 20 21 22 23 23 23 23 22 22 22 22 22 22 21 20 19 19 19 18 16 15 14 13 12 12 13 14 15 16 17 17 18 19 20 20 20 20 18
18 18 18 18 19 20 20 21 22 23 24 24 23 23 23 23 23 23 23 22 21 21 20 19 18 17 15 13 11 10 10 11 13 14 14 15 16 16 17 18 18 18 18
17 17 17 18 18 18 19 20 21 22 23 24 24 23 23 23 23 24 24 23 23 22 22 21 20 19 17 14 11 8 7 8 9 10 12 13 15 15 16 17 17 17 18
16 16 16 17 17 17 18 19 20 21 22 23 24 24 24 24 24 24 25 25 24 24 23 22 21 20 19 16 12 8 5 3 5 7 9 11 14 15 16 16 15 15 17
15 15 15 16 16 16 17 18 19 20 21 22 23 24 24 24 24 25 25 25 25 25 24 24 23 22 20 18 14 10 6 3 3 5 8 11 13 15 16 16 16 15 14
15 15 15 15 15 15 16 17 18 18 19 20 22 23 23 24 24 25 25 25 25 26 25 24 24 24 23 20 17 13 10 8 8 8 9 11 13 15 16 16 15 16 15
14 14 14 14 14 15 15 16 16 17 18 19 20 21 22 24 24 24 25 25 25 26 26 25 25 24 24 23 21 18 16 14 13 13 13 13 14 15 16 16 15 14 14
13 13 13 13 14 14 14 15 15 15 16 17 18 20 21 22 23 24 24 25 25 25 26 26 25 25 25 24 23 20 19 18 17 17 16 16 16 16 16 16 15 14 14

GEFSMW_500_meanwind_054.txt.gz
Wind_Speed
28 28 27 27 27 27 28 29 30 31 32 34 35 36 38 39 39 40 39 39 40 41 41 41 40 37 36 34 34 33 33 32 32 32 32 32 32 32 31 30 28 27 25
24 25 24 24 24 24 24 25 25 26 28 29 31 32 34 36 37 37 38 38 40 40 41 41 40 38 37 36 35 34 33 33 32 31 32 33 33 33 32 32 30 30 29
21 22 22 21 21 21 22 22 22 23 24 26 27 28 30 31 33 35 36 37 39 39 40 39 40 39 38 37 36 36 36 34 33 33 32 33 34 35 34 33 32 31 30
20 20 20 19 19 19 18 19 19 20 21 22 22 23 24 26 29 31 32 34 35 37 38 38 39 38 38 37 36 36 36 35 35 34 34 34 34 35 36 36 35 34 32
19 19 19 18 18 17 17 17 17 18 18 18 18 19 21 23 24 26 28 30 32 34 35 37 38 37 38 38 38 36 36 35 35 35 34 34 35 35 36 36 36 35 33
20 20 20 19 18 18 18 18 18 17 16 16 16 17 18 19 20 21 23 25 27 29 32 34 36 37 37 37 38 38 36 36 35 36 35 35 36 36 36 36 36 35 34
20 20 20 20 20 19 19 19 18 18 16 15 14 14 14 15 16 17 18 20 23 26 29 31 33 35 36 36 37 38 37 37 36 36 35 36 36 35 36 37 37 36 35
20 20 20 21 21 21 20 19 19 18 16 15 14 13 13 12 11 12 13 15 17 20 23 27 30 32 34 35 36 37 37 37 37 37 37 37 38 37 36 37 37 36 36
20 21 21 21 21 22 21 21 20 19 18 16 15 14 13 12 10 9 9 11 12 14 17 21 25 29 32 33 35 36 36 37 37 38 38 38 36 37 38 38 38 37 38
21 21 21 21 21 22 22 22 22 21 20 19 17 16 15 13 11 8 7 8 9 10 13 16 21 24 27 31 34 35 36 36 37 38 38 40 38 36 38 39 40 39 38
20 21 21 21 22 22 22 23 22 22 21 21 19 18 16 15 14 11 9 7 6 8 9 12 16 20 22 26 30 33 34 36 37 38 37 37 38 37 38 39 40 39 38
20 20 21 22 23 23 23 23 23 22 22 21 21 20 19 17 15 13 11 10 8 7 7 7 11 14 17 21 25 27 30 32 35 35 35 36 37 38 37 36 36 37 37
20 20 20 21 22 23 23 23 23 23 22 22 21 21 20 19 17 15 13 11 10 8 5 5 7 10 13 16 20 23 26 29 31 31 32 32 34 36 36 35 34 34 35
20 20 20 21 22 23 23 23 24 23 22 22 22 22 21 20 18 16 15 13 12 10 7 5 5 7 10 12 15 20 23 25 27 28 29 30 32 34 34 33 33 33 33
20 20 20 21 22 23 23 24 24 24 23 23 22 22 22 21 19 17 16 15 13 12 10 8 7 6 8 11 13 16 19 22 24 25 26 27 29 31 31 31 31 31 31
19 20 20 21 21 22 23 24 25 24 24 23 23 23 23 22 20 19 18 16 15 13 12 10 9 8 9 10 12 15 17 20 21 23 24 26 27 28 29 29 29 29 29
19 19 20 20 21 21 22 24 24 25 25 24 24 24 23 23 22 21 20 18 17 16 14 13 11 10 10 10 11 13 16 18 20 21 23 23 25 26 27 27 27 27 28
18 19 19 19 20 21 22 22 24 24 25 25 25 25 24 24 23 23 21 20 19 18 17 15 14 13 11 10 10 11 14 16 18 19 21 22 23 24 25 25 25 26 27
17 18 19 19 20 20 21 22 22 24 25 26 26 26 25 25 24 24 23 22 21 20 19 18 16 15 13 11 9 10 11 13 16 17 18 20 21 22 23 24 24 24 24
16 17 18 19 19 20 20 21 21 23 24 25 26 26 26 26 25 25 24 24 23 22 21 20 19 17 14 11 9 8 8 10 14 16 17 18 20 21 21 22 22 22 22
16 16 17 17 18 19 19 20 21 22 23 24 25 26 26 26 26 26 25 25 24 24 23 22 20 18 15 11 8 6 4 6 10 13 15 16 17 19 20 20 21 21 20
15 15 16 16 17 18 18 19 19 20 21 23 24 25 26 26 26 26 26 26 25 25 25 24 22 20 16 12 9 5 2 2 6 9 12 14 15 16 18 19 20 19 19
14 15 15 15 16 16 17 18 18 19 20 21 22 24 25 25 26 26 26 26 26 26 26 25 24 22 19 15 11 8 5 4 5 7 10 12 14 16 18 19 20 19 19
14 14 14 14 15 15 16 16 17 18 18 19 20 22 23 24 25 25 26 26 26 26 26 26 25 23 21 18 15 11 9 7 6 7 10 13 15 17 18 18 19 19 19
15 15 15 15 15 15 15 15 16 16 17 18 18 19 21 22 23 24 24 24 25 25 25 25 25 24 22 20 17 15 13 11 10 11 11 14 16 17 18 19 19 19 18
17 16 16 15 15 15 15 15 15 15 16 16 17 17 18 19 20 21 22 23 23 23 24 24 24 23 22 21 18 16 15 15 14 15 15 15 17 17 18 18 18 18 17

GEFSMW_500_meanwind_060.txt.gz
Wind_Speed
23 23 22 22 22 21 21 21 21 22 24 25 26 27 28 30 32 34 36 38 39 41 42 42 42 42 41 40 38 37 34 32 29 30 33 35 36 35 33 32 30 28 26
20 21 21 21 20 20 19 19 19 20 20 21 22 23 25 26 27 29 32 34 37 39 40 41 42 42 42 42 41 39 37 35 33 31 32 34 36 37 35 34 33 31 29
19 20 20 20 20 20 19 19 18 18 17 17 18 19 21 23 25 26 28 31 33 36 38 40 42 42 42 42 42 42 40 38 36 33 33 33 34 36 37 36 35 34 32
19 20 20 21 21 20 19 19 18 17 17 16 16 16 17 19 21 23 25 27 29 31 34 37 40 41 42 42 41 41 41 41 39 36 34 33 32 34 36 38 37 36 35
19 20 20 20 20 21 20 20 19 18 17 16 15 15 16 17 18 20 22 24 26 28 30 33 36 39 41 41 41 41 41 42 41 39 37 35 34 33 36 37 37 37 37
19 20 21 21 21 21 21 21 20 18 17 16 15 14 15 15 16 17 18 21 23 26 28 30 32 35 38 40 41 41 42 42 42 41 40 39 38 36 36 36 37 38 38
20 21 21 21 21 22 22 21 20 19 19 18 16 15 15 14 14 13 14 16 18 21 23 25 28 31 34 36 39 41 41 43 43 42 42 42 41 39 38 38 37 37 38
20 21 21 21 22 22 23 22 21 20 19 18 17 17 16 14 13 13 13 13 14 16 18 21 24 26 29 32 35 38 41 43 44 43 43 43 42 41 40 39 38 37 38
20 21 21 21 22 23 23 22 21 21 20 20 19 18 17 16 14 13 12 11 11 12 15 17 20 23 26 29 32 36 39 42 44 44 43 45 44 44 42 41 40 39 39
19 20 21 21 22 23 23 23 22 21 21 21 20 20 19 17 16 14 13 12 10 10 12 14 17 20 22 25 29 33 36 39 42 43 43 43 44 45 45 44 43 41 41
18 19 20 21 22 23 23 22 22 22 21 21 21 21 20 19 17 16 15 13 12 10 10 12 14 17 19 22 25 29 33 36 39 41 42 42 42 44 44 45 44 42 43
18 19 20 21 22 23 23 23 23 23 22 22 22 22 21 19 18 17 16 15 14 12 11 10 11 13 16 18 22 26 29 32 36 39 41 41 41 42 44 43 42 42 43
19 19 19 20 21 22 23 24 24 23 23 23 23 23 22 20 19 19 18 17 15 13 12 11 11 11 13 15 18 21 26 29 31 34 36 38 40 40 41 42 42 41 42
18 19 19 20 21 22 23 24 24 25 25 24 24 24 23 22 21 20 19 18 17 16 14 13 12 11 11 12 14 17 20 24 28 29 31 33 37 38 38 39 40 40 40
18 18 19 20 20 21 22 23 24 25 25 25 25 25 24 24 23 22 21 20 19 18 17 15 14 13 12 12 13 15 18 21 25 27 28 30 31 33 35 36 37 39 40
17 18 19 19 20 21 22 22 23 24 25 26 26 26 25 25 24 23 23 22 21 20 19 17 15 14 13 12 12 14 16 19 21 24 25 27 28 28 30 32 33 35 37
18 18 19 19 20 21 21 22 23 24 25 26 26 26 26 25 25 25 24 24 23 22 21 19 17 15 14 13 12 11 13 16 18 20 22 25 27 27 29 29 29 31 33
17 18 18 19 20 20 21 22 23 24 25 26 26 26 26 26 26 26 26 25 25 24 23 22 20 17 15 12 11 10 10 13 15 18 19 21 24 25 25 26 26 27 28
17 17 18 18 19 20 21 21 22 23 24 25 26 26 27 27 27 27 27 27 26 25 25 23 22 19 16 13 11 8 7 9 12 15 17 19 21 22 22 22 22 23 24
16 17 17 18 19 19 20 21 22 22 24 25 25 26 27 27 28 28 28 28 28 27 26 25 23 21 18 14 11 8 6 6 8 11 14 16 18 19 19 20 21 21 22
16 17 18 18 18 19 20 21 21 22 23 24 25 26 26 27 28 28 28 29 29 28 28 26 24 22 19 16 12 8 5 3 4 7 10 12 14 16 17 18 19 20 21
17 18 18 19 19 19 20 20 21 22 23 23 24 25 26 26 27 28 28 29 29 29 28 27 25 23 21 18 14 11 7 4 1 4 6 9 11 14 16 17 18 19 20
19 19 19 19 20 20 20 21 21 22 22 23 23 24 25 25 26 26 27 28 29 29 28 27 25 23 21 19 16 12 9 6 3 2 5 7 10 12 14 15 16 18 19
21 21 21 21 21 21 21 21 22 22 22 23 23 24 24 24 25 25 26 26 27 28 27 26 26 24 22 20 17 15 12 9 7 5 6 7 10 12 13 14 15 17 17
23 23 23 23 23 23 23 23 22 22 22 23 23 23 23 23 24 24 24 24 25 26 26 25 25 23 22 20 19 17 14 11 9 8 7 7 9 11 12 13 15 16 16
26 26 25 25 25 25 25 24 24 23 23 23 23 23 23 23 23 23 23 23 23 23 24 23 22 22 21 19 18 17 15 12 10 9 8 8 9 11 12 12 13 14 14

GEFSMW_500_meanwind_066.txt.gz
Wind_Speed
18 19 20 20 21 21 20 20 20 20 19 19 19 19 20 22 23 26 28 31 34 36 38 41 42 43 45 46 45 43 41 39 38 35 33 32 31 31 32 31 29 29 27
19 19 20 20 20 20 20 20 20 19 18 17 17 16 17 18 19 21 24 27 31 33 35 38 40 42 43 45 45 45 44 42 41 38 36 35 33 32 33 34 33 32 31
18 19 20 21 20 20 20 21 20 18 17 16 15 14 14 15 16 18 21 24 26 29 32 34 37 40 42 43 44 44 44 44 43 41 39 37 35 34 35 34 35 35 34
18 19 20 20 21 21 21 21 19 18 17 16 15 14 13 13 13 15 17 19 23 26 28 31 33 36 39 42 43 43 43 44 44 42 41 40 38 36 35 35 36 37 37
18 19 20 20 21 21 21 20 20 19 18 17 16 15 13 12 13 13 14 16 18 21 25 27 30 34 36 39 41 42 43 43 44 43 43 42 41 40 37 35 36 37 38
17 19 20 20 21 21 21 20 20 20 20 19 17 16 15 13 13 12 13 14 15 18 20 24 27 30 33 36 39 41 42 43 43 44 44 43 42 41 41 39 38 38 40
17 18 19 20 21 21 21 21 21 21 20 20 19 18 16 15 14 13 13 13 13 15 18 20 23 26 29 32 35 39 41 42 44 45 45 44 44 43 43 42 40 39 40
16 17 19 20 21 22 21 21 21 21 21 21 20 19 18 17 16 15 14 13 13 12 13 16 19 22 26 29 32 35 38 40 42 44 46 46 46 46 45 44 43 42 42
16 17 18 20 21 22 22 22 22 22 22 22 21 20 20 19 18 16 15 14 13 12 11 13 16 19 22 26 30 33 36 38 40 42 44 45 47 47 47 46 45 45 44
16 17 18 19 20 22 22 23 23 23 23 23 23 22 21 20 20 19 18 17 15 13 12 12 13 16 19 23 26 30 33 36 38 40 42 43 45 47 48 47 47 47 46
16 17 18 19 20 21 22 23 24 24 24 24 24 23 23 22 21 20 19 18 17 15 14 13 13 14 16 19 22 26 29 32 35 38 40 42 44 46 48 48 48 49 48
15 16 17 18 19 20 21 22 23 24 24 24 24 24 24 23 22 22 20 20 18 17 15 14 14 14 15 17 20 22 26 29 32 35 37 39 42 44 46 48 49 49 49
15 16 17 18 19 20 21 22 23 23 24 24 25 25 25 24 24 23 22 21 21 19 18 16 16 15 16 17 18 20 23 26 30 32 35 37 39 42 44 46 47 47 47
15 15 16 17 19 20 21 22 22 23 23 24 25 25 25 25 25 24 24 23 22 21 20 19 18 17 16 15 16 18 20 23 27 29 32 35 37 39 41 43 46 46 45
14 15 16 17 18 19 20 21 22 23 23 24 24 25 25 25 26 25 25 24 24 23 22 21 20 18 16 15 14 15 17 20 23 26 29 31 34 36 38 40 42 45 45
14 15 16 17 17 18 20 21 22 23 23 24 25 25 25 25 26 26 26 25 25 25 24 23 21 19 17 15 13 13 14 16 19 22 25 28 31 33 35 36 38 40 42
14 15 15 16 17 18 19 20 21 22 23 24 24 25 25 26 26 27 27 27 26 26 26 24 23 21 18 16 14 12 12 13 15 18 21 23 27 30 32 34 36 37 37
14 15 16 17 18 18 19 20 21 22 23 23 24 25 25 26 26 27 28 28 28 27 27 25 24 22 20 18 15 12 10 11 13 15 17 20 23 27 30 31 33 35 34
15 16 17 17 18 19 20 20 21 22 22 23 24 25 25 25 26 27 28 29 29 28 28 27 25 23 21 20 17 14 11 10 10 12 14 17 20 23 25 28 30 32 33
16 17 17 18 19 20 20 21 21 22 22 23 24 24 25 25 26 27 27 28 29 29 28 27 26 24 22 20 18 15 12 9 8 9 11 13 16 19 21 23 26 29 30
17 18 19 19 20 20 21 21 22 22 22 23 23 24 25 25 26 26 27 27 28 28 28 27 27 25 24 22 20 16 13 10 7 5 7 10 12 15 18 20 22 24 27
19 20 20 20 21 21 21 22 22 22 23 23 24 24 25 25 25 26 26 26 26 27 27 27 27 26 25 23 21 18 15 11 7 4 4 6 8 11 14 17 19 20 22
20 20 21 21 21 22 22 22 23 23 23 24 24 24 25 25 25 25 25 26 26 25 26 26 26 25 25 23 22 19 16 13 9 6 3 3 5 7 9 12 15 17 20
21 21 22 22 23 23 24 24 24 24 24 25 25 25 25 25 25 25 25 25 25 25 24 24 24 24 24 23 22 20 16 13 10 7 5 3 1 4 7 9 12 15 16
23 23 24 24 25 25 25 25 25 25 25 26 26 25 25 25 25 24 24 24 24 24 24 23 23 22 22 22 21 19 17 13 11 8 5 3 1 3 5 8 10 13 15
26 26 27 28 28 28 28 27 27 26 26 27 27 26 26 25 25 24 24 24 24 23 23 22 22 21 20 20 19 18 16 13 11 8 6 3 1 2 4 6 9 11 13

GEFSMW_500_meanwind_072.txt.gz
Wind_Speed
17 18 19 21 21 21 21 21 21 20 19 18 18 17 16 15 15 16 18 20 22 24 26 28 29 30 31 32 33 35 36 35 34 33 33 31 29 27 28 28 27 26 25
17 18 19 20 21 21 21 21 21 20 20 19 18 17 16 15 14 13 14 16 18 20 22 24 26 28 29 31 32 33 35 36 35 35 35 34 31 30 30 29 29 29 29
16 18 19 20 21 21 21 21 21 21 20 19 19 17 16 15 14 12 12 13 14 17 19 21 23 25 27 29 31 32 34 35 36 37 36 35 34 33 33 32 32 31 31
16 17 18 19 20 21 21 21 21 22 21 20 20 19 17 16 14 13 11 11 12 14 16 19 21 22 24 27 29 31 32 33 35 37 38 37 36 36 35 35 34 33 33
15 16 17 19 20 21 21 21 22 22 22 21 21 20 19 17 16 14 13 12 12 12 13 15 18 20 22 24 27 30 31 33 34 36 37 38 38 38 38 37 36 36 35
14 15 16 18 19 20 21 22 22 22 22 22 22 21 20 19 18 17 15 14 13 13 13 13 15 17 20 22 24 27 30 32 34 36 36 37 38 39 39 39 40 38 37
13 14 16 17 19 20 21 22 23 23 23 23 23 22 21 21 20 19 18 16 14 13 13 14 14 15 18 20 22 25 28 30 32 34 36 37 38 38 40 41 41 41 40
12 14 15 17 18 19 20 22 23 23 24 24 24 23 23 22 22 21 20 18 16 15 14 14 14 15 17 19 22 24 26 28 31 33 35 36 38 38 40 41 41 41 41
11 13 14 16 17 19 20 21 22 23 24 24 24 24 24 23 23 22 22 20 18 16 15 14 15 15 16 18 20 22 25 27 29 32 34 35 37 39 40 41 42 41 41
10 12 14 15 17 18 19 20 21 22 23 24 24 24 24 25 24 24 23 22 20 18 16 16 16 15 16 17 18 20 23 25 27 30 32 34 36 38 39 41 42 42 42
10 12 13 15 16 17 18 19 20 21 22 23 24 24 24 25 25 25 25 24 23 20 18 18 17 17 16 16 17 19 21 23 26 28 30 32 34 36 37 39 41 42 43
10 11 13 14 15 17 18 19 20 21 22 22 23 24 24 24 24 25 25 25 24 23 21 20 19 18 17 17 16 17 19 20 23 25 27 29 32 34 36 38 40 41 42
10 11 12 14 15 17 18 19 20 21 22 22 23 23 24 24 24 25 25 25 25 24 24 23 21 20 19 18 17 16 17 18 20 22 24 26 29 31 34 36 38 39 41
10 11 13 14 15 17 18 19 20 21 21 22 23 23 24 24 24 24 25 25 25 25 25 24 23 22 21 19 18 16 16 17 18 19 21 23 26 29 31 33 35 37 39
10 12 13 14 16 17 18 19 20 21 21 22 23 23 24 24 25 25 25 25 25 25 25 25 25 24 23 21 19 17 16 16 16 17 19 21 24 26 29 31 33 35 37
11 13 14 15 16 17 18 19 20 20 21 22 23 23 24 25 25 25 26 26 26 26 26 26 26 25 24 22 20 18 16 15 14 15 16 18 21 24 26 28 31 33 35
13 14 15 15 16 17 19 20 20 21 22 22 23 24 24 25 25 25 25 26 26 26 26 26 26 26 25 24 21 19 17 15 13 12 14 16 18 21 23 26 29 31 33
14 15 16 17 17 18 19 20 21 22 22 23 23 24 24 25 25 25 25 26 26 26 26 26 27 27 26 25 23 21 18 16 14 12 13 14 15 18 20 23 25 27 29
15 16 17 18 18 19 20 20 21 22 22 23 23 24 24 25 25 26 26 25 26 26 26 26 26 26 26 25 24 22 20 17 16 14 13 12 13 14 16 19 22 25 27
16 17 18 19 19 20 21 21 22 23 23 24 24 25 25 25 26 26 26 25 25 26 26 26 26 26 26 25 24 23 21 19 17 15 13 12 11 12 13 15 18 20 23
18 18 19 20 20 21 22 22 23 24 24 25 25 26 26 26 26 26 27 26 26 25 25 26 25 25 25 25 25 23 22 20 19 16 14 13 11 11 11 12 14 17 19
19 19 20 21 22 23 23 24 24 25 26 26 27 27 27 27 27 27 27 27 26 26 26 25 25 25 25 25 25 24 23 21 19 18 16 14 12 11 11 11 11 13 15
20 21 22 22 23 24 24 25 26 27 27 28 28 28 28 28 28 27 27 27 27 26 26 25 25 24 24 24 24 24 23 21 20 18 16 14 12 11 11 10 10 10 11
22 23 24 24 25 25 26 27 28 29 29 30 30 30 29 29 29 28 28 28 27 26 26 25 25 24 24 23 23 23 22 21 20 19 17 15 13 12 11 10 9 8 9
24 25 25 26 27 27 28 29 30 32 32 32 32 32 31 31 30 29 29 29 28 28 27 26 25 24 24 23 23 22 22 21 20 18 17 15 14 12 11 10 9 7 7
26 26 27 28 29 30 31 32 33 34 34 34 33 33 32 31 31 30 29 29 28 28 28 27 26 25 24 24 23 23 22 21 20 19 18 16 14 13 11 10 9 8 8

GEFSMW_500_meanwind_078.txt.gz
Wind_Speed
12 13 15 16 17 18 19 20 20 20 20 20 19 18 17 16 15 14 12 11 11 13 15 18 21 23 25 26 28 28 30 31 32 33 32 32 31 31 31 32 31 29 27
11 13 14 15 16 18 18 20 20 20 20 20 20 20 19 17 16 15 13 11 9 9 11 14 16 19 22 24 26 27 28 29 31 32 33 33 32 32 33 33 33 32 31
10 12 13 15 16 17 18 19 20 20 21 21 21 20 19 19 17 16 14 12 10 9 8 10 13 15 18 20 23 25 26 28 30 31 32 33 33 33 33 34 34 34 33
9 11 13 14 16 17 18 19 20 21 21 21 21 21 20 20 19 18 17 14 11 9 8 9 10 12 14 17 20 23 25 27 29 30 31 32 33 32 33 35 35 35 35
9 10 12 13 14 16 17 19 20 21 21 22 22 22 21 21 20 19 18 16 14 11 9 8 9 11 12 15 18 20 23 26 28 30 30 32 33 33 33 34 35 36 36
8 9 10 12 13 15 17 18 19 20 21 21 22 22 22 22 21 21 20 18 16 14 12 10 9 9 10 12 15 18 20 23 27 29 31 32 33 34 35 36 36 36 37
6 8 9 11 12 14 16 17 18 19 20 21 21 22 22 22 22 22 21 20 19 17 14 12 10 9 9 10 13 16 18 21 24 27 30 32 33 35 36 37 38 38 38
5 7 8 10 12 13 15 16 17 18 19 20 21 21 22 22 22 22 21 21 20 19 17 14 12 11 10 10 11 13 16 19 22 25 28 30 32 34 36 38 39 40 40
4 6 7 9 11 13 14 16 17 18 19 20 21 21 22 22 22 22 22 22 21 20 18 16 14 12 11 11 11 12 14 17 20 23 25 28 31 33 35 37 40 41 42
3 5 7 9 11 12 14 15 16 18 19 20 20 21 22 22 22 23 22 22 22 21 19 18 17 15 14 13 12 11 12 14 17 20 23 26 28 31 33 35 38 40 42
3 4 6 8 11 12 14 15 16 18 19 20 20 21 22 22 22 22 22 22 22 21 20 19 18 18 16 15 14 13 12 13 15 18 21 24 27 29 32 34 36 39 41
3 5 7 9 10 12 14 15 17 18 19 20 21 21 22 22 22 22 22 22 22 21 20 20 19 19 18 17 16 14 13 12 13 15 18 21 24 27 30 32 34 38 40
4 6 7 9 11 13 14 15 17 18 19 20 21 21 22 22 23 22 22 22 21 21 21 20 20 20 20 19 18 16 15 13 13 14 16 18 21 24 27 30 33 35 38
5 7 8 10 12 13 14 16 17 18 19 20 21 22 22 22 22 22 22 22 21 21 21 21 21 21 20 20 19 17 16 14 13 13 14 16 19 21 24 28 31 33 35
7 8 10 11 12 14 15 16 18 19 19 20 21 21 22 22 22 22 22 22 22 21 21 21 21 21 21 21 20 19 17 15 14 14 13 14 16 18 20 23 27 30 32
8 9 11 12 13 14 15 17 18 19 20 20 21 21 22 22 22 22 22 22 22 21 21 21 21 22 22 21 20 19 18 17 15 14 14 13 13 15 17 20 22 26 29
10 11 12 13 14 15 16 17 18 20 20 21 21 22 22 22 22 23 23 22 22 21 21 21 21 21 21 21 20 20 18 17 16 15 14 13 13 13 14 16 19 22 25
12 12 13 14 14 15 16 18 19 20 21 21 22 22 23 23 23 23 23 23 22 22 21 21 21 21 21 21 20 20 18 17 17 15 14 13 13 13 13 14 16 19 22
13 13 14 15 15 16 17 19 19 20 21 22 22 23 23 24 24 24 24 24 23 22 22 21 21 21 21 21 20 20 19 18 17 16 15 14 14 13 12 12 14 16 20
14 15 15 16 17 17 18 19 20 21 22 22 23 23 24 25 25 25 25 24 24 23 23 22 22 22 21 21 20 20 19 19 18 17 16 15 14 14 12 12 12 13 16
16 16 16 17 17 18 19 20 21 22 23 23 24 25 26 26 26 26 25 25 25 24 24 23 23 22 22 21 20 20 19 19 19 19 17 16 15 13 12 11 11 12 13
17 17 17 17 18 19 20 21 22 23 24 25 26 27 27 28 28 27 27 26 26 25 24 24 23 23 22 21 21 20 20 19 19 19 18 16 15 14 13 12 11 11 12
18 18 18 19 19 20 21 22 23 25 26 27 28 29 29 29 29 28 28 27 27 25 24 24 23 23 22 22 21 20 20 19 19 19 18 17 16 15 14 13 12 12 12
20 19 19 20 21 22 23 24 25 26 28 28 29 30 31 30 30 29 28 28 27 26 25 24 23 23 22 21 21 20 20 20 19 19 19 18 17 16 15 14 13 13 12
21 21 21 21 22 24 25 26 27 28 30 30 31 32 32 31 31 30 30 29 28 27 25 25 24 22 22 21 21 20 20 20 20 20 20 19 18 17 16 15 15 14 13
22 22 23 24 24 25 27 28 29 30 31 32 33 33 33 32 32 31 31 30 28 27 26 25 24 23 22 22 21 21 21 21 21 20 20 20 19 18 18 17 16 15 15